Terminal Aerodrome Forecast
Issued by NWS Twin Cities, MN

Home | Current Version | Previous Version | Text Only | Print | Product List | Glossary Off
Versions: 1 2 3 4 5 6 7 8 9 10 11 12 13 14 15 16 17 18 19 20 21 22 23 24 25 26

000
FTUS43 KMPX 031720
TAFMSP
TAF
KMSP 031720Z 0318/0424 25007KT P6SM SCT250
     FM032000 26007KT P6SM SCT050 SCT250
     FM040200 23004KT P6SM SCT070 SCT250
     FM040800 VRB03KT 6SM BR SCT250
     FM041600 17006KT P6SM SCT050 SCT250=

USA.gov is the U.S. government's official web portal to all federal, state and local government web resources and services.